Location: Palomar Observatory
(33.3560°N, 116.8630°W)
Time: 06:30:25
(UTC-08:00)

Iridium 57 - Visible Passes

Search period start: 05 March 2015 00:00
Search period end: 15 March 2015 01:00
Orbit: 776 x 779 km, 86.4° (Epoch: 04 March)

Date Brightness Start Highest point End Pass type
(mag) Time Alt. Az. Time Alt. Az. Time Alt. Az.
05 Mar 5.8 18:32:13 10° NNE 18:37:09 43° E 18:42:07 10° SSE visible
05 Mar 8.2 20:14:13 10° NW 20:17:35 17° W 20:20:41 10° WSW visible
06 Mar 7.3 19:39:36 10° NNW 19:44:14 32° W 19:48:46 10° SSW visible
07 Mar 6.0 19:05:39 10° N 19:10:50 64° W 19:15:57 10° S visible
08 Mar 5.5 19:32:07 10° N 19:37:18 66° E 19:42:29 10° S visible
08 Mar 8.8 21:16:07 10° WNW 21:17:33 11° W 21:18:34 10° W visible
09 Mar 8.0 20:40:14 10° NW 20:44:14 22° W 20:48:03 10° SW visible
10 Mar 6.9 20:05:57 10° NNW 20:10:51 42° W 20:15:43 10° SSW visible
11 Mar 5.6 19:32:11 10° N 19:37:24 83° W 19:42:37 10° S visible
12 Mar 8.6 20:41:18 10° NW 20:44:12 15° W 20:46:49 10° WSW visible
13 Mar 9.2 06:15:24 10° E 06:15:54 10° E 06:16:48 10° ENE visible
13 Mar 7.7 20:06:25 10° NNW 20:10:52 28° W 20:15:12 10° SW visible
14 Mar 6.4 19:32:22 10° NNW 19:37:28 55° W 19:42:32 10° SSW visible
